www.pogodaiklimat.ru

Погода и климат >> Архив погоды >> Великобритания >> Макрайханиш


ПОГОДА в Макрайханише

  • Прогноз погоды в Макрайханише
  • Монитор погоды в Макрайханише

АРХИВ ПОГОДЫ в Макрайханише

Время (UTC), дата Ветер
(напр.,м/с)
 
Видим.   Явления Облачность Т
(С)
Тd
(С)
f
(%)
Тe
(С)
Тes
(С)
Комфортность P
(гПа)
Po
(гПа)
Тmin
(С)
Tmax
(С)
R
(мм)
R24
(мм)
S
(см)
13 15.09 СЗ 7 17 км н/о +13.7 +9.5 76 +11 +11 1023.8 1022.6
14 15.09 СЗ 5 18 км н/о +13.9 +9.5 75 +12 +12 1023.7 1022.5
15 15.09 СЗ 4 17 км н/о +13.4 +9.4 77 +12 +12 1023.6 1022.4
16 15.09 З 5 17 км н/о +13.3 +9.4 77 +11 +11 1023.0 1021.8
17 15.09 З 4 18 км н/о +13.3 +9.2 76 +12 +12 1022.7 1021.5
18 15.09 СЗ 4 15 км н/о +12.3 +9.2 81 +10 +10 1022.9 1021.7 +14.3 0.4
19 15.09 СЗ 3 17 км н/о +11.8 +9.1 84 +10 +10 1022.9 1021.7
20 15.09 СЗ 3 16 км н/о +12.0 +9.1 82 +10 +10 1023.0 1021.8
21 15.09 С 2 16 км н/о +10.9 +8.8 87 +10 +10 1023.1 1021.9
22 15.09 В 1 19 км н/о +9.3 +8.0 92 +10 +10 1023.1 1021.9
23 15.09 В 2 16 км н/о +7.9 +7.0 94 +6 +6 1023.2 1022.0
00 16.09 В 2 18 км н/о +6.7 +6.0 95 +5 +5 1023.4 1022.1
01 16.09 В 2 16 км н/о +6.4 +5.9 97 +4 +4 1023.2 1021.9
02 16.09 В 2 18 км н/о +5.8 +5.4 97 +3 +3 1022.9 1021.6
03 16.09 В 3 19 км н/о +5.7 +5.4 98 +2 +2 1022.7 1021.4
04 16.09 В 2 19 км н/о +6.8 +6.6 99 +4 +4 1022.5 1021.2
05 16.09 ЮВ 2 19 км н/о +6.8 +6.5 98 +5 +5 1022.3 1021.1
06 16.09 СЗ 5 23 км н/о +11.1 +9.7 91 +8 +8 1022.5 1021.3 +5.6
07 16.09 СЗ 3 26 км н/о +11.2 +9.0 86 +9 +9 1022.6 1021.4
08 16.09 З 4 23 км н/о +12.3 +10.3 88 +10 +10 1023.0 1021.7
09 16.09 З 4 24 км н/о +13.1 +10.3 83 +11 +11 1023.2 1022.0
10 16.09 СЗ 5 25 км н/о +13.1 +9.8 80 +11 +11 1023.7 1022.4
11 16.09 СЗ 6 27 км н/о +13.8 +8.4 70 +12 +12 1023.9 1022.7
12 16.09 СЗ 7 19 км н/о +13.3 +8.7 74 +11 +11 1024.2 1022.9
13 16.09 СЗ 8 26 км н/о +14.8 +9.8 72 +13 +13 1024.0 1022.8
14 16.09 СЗ 8 27 км н/о +14.0 +7.7 66 +12 +12 1024.1 1022.9
15 16.09 З 8 27 км н/о +13.6 +9.2 75 +11 +11 1024.0 1022.8
16 16.09 СЗ 6 26 км н/о +13.1 +9.9 81 +11 +11 1023.9 1022.7
17 16.09 З 9 28 км н/о +13.4 +8.8 74 +11 +11 1024.0 1022.8
18 16.09 З 8 27 км н/о +13.0 +8.0 72 +10 +10 1024.2 1023.0 +15.3
19 16.09 СЗ 7 27 км н/о +12.9 +8.1 73 +10 +10 1024.4 1023.1
20 16.09 СЗ 7 25 км н/о +12.8 +8.6 76 +10 +10 1024.6 1023.4
21 16.09 СЗ 6 24 км н/о +12.7 +9.0 78 +10 +10 1024.5 1023.2
22 16.09 СЗ 7 21 км н/о +12.1 +8.9 81 +9 +9 1024.6 1023.4
23 16.09 СЗ 9 24 км н/о +12.3 +8.9 80 +9 +9 1024.8 1023.5
00 17.09 СЗ 8 23 км н/о +12.4 +8.5 77 +9 +9 1024.5 1023.3
01 17.09 СЗ 8 23 км н/о +12.8 +9.1 78 +10 +10 1024.6 1023.4
02 17.09 СЗ 7
{13}
23 км н/о +12.3 +8.7 79 +9 +9 1024.6 1023.4
03 17.09 СЗ 7 21 км н/о +12.4 +9.0 80 +9 +9 1025.0 1023.8
04 17.09 СЗ 7 24 км н/о +12.6 +8.5 76 +10 +10 1024.7 1023.5
05 17.09 СЗ 6 25 км н/о +12.1 +8.5 79 +9 +9 1025.1 1023.9
06 17.09 СЗ 6 28 км н/о +11.8 +7.7 76 +9 +9 1025.4 1024.2 +11.6
07 17.09 СЗ 7 23 км н/о +11.9 +8.3 79 +9 +9 1026.0 1024.8
08 17.09 СЗ 6 23 км н/о +12.4 +8.4 77 +10 +10 1026.4 1025.2
09 17.09 СЗ 6 23 км н/о +13.1 +6.7 65 +11 +11 1026.9 1025.7
10 17.09 СЗ 5 22 км н/о +13.0 +7.1 67 +11 +11 1027.6 1026.3
11 17.09 СЗ 5 20 км н/о +13.0 +7.0 67 +11 +11 1027.7 1026.4
12 17.09 С 4 22 км н/о +13.2 +7.7 69 +12 +12 1028.1 1026.8
13 17.09 СЗ 5 22 км н/о +13.9 +7.6 66 +12 +12 1028.0 1026.8
14 17.09 СЗ 5 23 км н/о +14.1 +7.6 65 +13 +13 1028.2 1026.9
15 17.09 СЗ 4 25 км н/о +14.1 +7.8 66 +13 +13 1028.1 1026.9
16 17.09 СЗ 5 24 км н/о +13.7 +7.5 66 +12 +12 1028.0 1026.8
17 17.09 С 4 16 км н/о +13.2 +7.5 68 +12 +12 1028.1 1026.9
18 17.09 С 3 24 км н/о +13.1 +7.5 69 +12 +12 1028.1 1026.9 +14.7
19 17.09 С 2 17 км н/о +11.6 +7.2 74 +11 +11 1028.5 1027.3
20 17.09 ЮВ 2 24 км н/о +7.9 +5.7 86 +6 +6 1028.7 1027.5
21 17.09 В 2 24 км н/о +7.7 +6.0 89 +6 +6 1029.2 1027.9
22 17.09 ЮВ 1 25 км н/о +8.3 +6.7 90 +7 +7 1029.2 1028.0
23 17.09 В 2 26 км н/о +8.5 +7.5 93 +7 +7 1029.1 1027.9
00 18.09 В 2 16 км н/о +9.5 +8.3 92 +8 +8 1029.0 1027.7
01 18.09 ЮВ 3 25 км н/о +9.9 +8.4 90 +8 +8 1028.9 1027.6
02 18.09 В 2 28 км н/о +9.9 +8.3 90 +8 +8 1028.8 1027.6
03 18.09 В 3 25 км н/о +9.3 +7.9 91 +7 +7 1028.6 1027.3
04 18.09 В 2 25 км н/о +8.9 +7.7 92 +7 +7 1028.4 1027.2
05 18.09 В 2 24 км н/о +9.8 +8.8 93 +8 +8 1028.5 1027.2
06 18.09 В 2 30 км н/о +10.5 +9.1 91 +9 +9 1028.8 1027.5 +7.7
07 18.09 З 5 24 км н/о +12.6 +10.4 86 +10 +10 1029.0 1027.7
08 18.09 З 6 23 км н/о +13.0 +11.0 88 +11 +11 1029.0 1027.8
09 18.09 З 5 24 км н/о +13.5 +11.4 87 +12 +12 1029.5 1028.3
10 18.09 З 5 24 км н/о +14.2 +11.4 83 +12 +12 1029.6 1028.4
11 18.09 З 6 28 км н/о +14.8 +11.0 78 +13 +13 1029.9 1028.7
12 18.09 З 6 27 км н/о +14.9 +11.0 77 +13 +13 1030.0 1028.8
13 18.09 З 6 26 км н/о +14.3 +11.5 83 +12 +12 1030.2 1029.0
14 18.09 З 4 24 км н/о +14.5 +11.9 84 +13 +13 1030.2 1028.9
15 18.09 З 5 21 км н/о +14.1 +12.4 89 +12 +12 1030.0 1028.8
16 18.09 З 5 30 км н/о +14.4 +12.4 88 +13 +13 1029.9 1028.7
17 18.09 СЗ 4 28 км н/о +14.2 +12.1 87 +13 +13 1030.0 1028.8
18 18.09 СЗ 3 26 км н/о +13.8 +12.4 91 +13 +13 1030.1 1028.9 +15.6
19 18.09 С 3 23 км н/о +13.6 +12.5 93 +12 +12 1030.3 1029.1
20 18.09 СЗ 2 30 км н/о +13.1 +12.4 96 +12 +12 1030.8 1029.5
21 18.09 СЗ 2 21 км н/о +12.8 +12.2 96 +12 +12 1030.9 1029.7
22 18.09 С 1 30 км н/о +12.0 +11.3 95 +13 +13 1031.0 1029.7
23 18.09 Ю 1 28 км н/о +12.3 +11.8 97 +13 +13 1031.0 1029.8
00 19.09 З 2 11 км н/о +11.8 +11.2 96 +11 +11 1031.0 1029.7
01 19.09 ЮЗ 1 5000 м н/о +10.8 +10.4 97 +10 +10 1030.8 1029.5
02 19.09 ЮВ 2 19 км н/о +9.4 +9.1 98 +8 +8 1030.4 1029.2
03 19.09 В 3 21 км н/о +8.4 +8.3 99 +6 +6 1030.5 1029.2
04 19.09 В 2 19 км н/о +8.2 +8.1 99 +6 +6 1030.2 1028.9
05 19.09 В 2 15 км н/о +8.6 +8.5 99 +7 +7 1030.3 1029.0
06 19.09 В 3 19 км н/о +9.0 +9.0 100 +7 +7 1030.4 1029.2 +8.0
07 19.09 В 3 17 км н/о +9.8 +9.8 100 +8 +8 1030.4 1029.1
08 19.09 В 3 16 км н/о +12.8 +12.8 100 +11 +11 1030.6 1029.4
09 19.09 ЮВ 4 20 км н/о +14.5 +12.9 90 +13 +13 1030.8 1029.6
10 19.09 ЮВ 3 21 км н/о +15.7 +13.0 84 +15 +15 1030.7 1029.5
11 19.09 ЮВ 2 21 км н/о +17.0 +13.6 80 +17 +17 1030.7 1029.5
12 19.09 З 3 22 км н/о +17.1 +11.6 70 +17 +17 1030.6 1029.4
13 19.09 СЗ 3 21 км н/о +16.2 +11.3 73 +16 +16 1030.4 1029.2
14 19.09 СЗ 3 22 км н/о +16.1 +11.6 75 +16 +16 1030.0 1028.8
15 19.09 СЗ 3 22 км н/о +16.4 +11.6 73 +16 +16 1029.7 1028.5
16 19.09 ЮЗ 1 22 км н/о +17.3 +11.9 71 +18 +18 1029.4 1028.2
17 19.09 ЮВ 3 20 км н/о +16.5 +12.4 77 +16 +16 1029.1 1027.9
18 19.09 ЮВ 4 17 км н/о +15.3 +13.0 86 +14 +14 1028.8 1027.6 +18.5
19 19.09 ЮВ 4 16 км н/о +13.7 +12.1 90 +12 +12 1028.8 1027.6
20 19.09 В 4 14 км н/о +12.3 +11.4 94 +10 +10 1029.0 1027.7
21 19.09 В 5 9000 м н/о +11.0 +10.5 97 +8 +8 1029.0 1027.7
22 19.09 В 5 11 км н/о +11.8 +11.5 98 +9 +9 1028.8 1027.5
23 19.09 В 5 11 км н/о +12.2 +12.0 99 +10 +10 1028.5 1027.3
00 20.09 В 5 27 км н/о +11.1 +10.7 97 +8 +8 1028.0 1026.8
01 20.09 В 4 12 км н/о +11.6 +11.5 99 +9 +9 1027.6 1026.4
02 20.09 В 1 13 км н/о +11.4 +11.4 100 +11 +11 1027.3 1026.0
03 20.09 ЮВ 7 15 км н/о +11.7 +11.4 98 +8 +8 1026.6 1025.4
04 20.09 ЮВ 8 12 км н/о +11.4 +11.4 100 +8 +8 1025.9 1024.7
05 20.09 В 6 12 км н/о +11.4 +11.3 99 +8 +8 1025.6 1024.4
06 20.09 В 6 17 км н/о +11.6 +11.1 97 +9 +9 1025.3 1024.0 +10.1 0.2
07 20.09 ЮВ 5 18 км н/о +12.1 +11.6 97 +9 +9 1025.0 1023.8
08 20.09 ЮВ 6 20 км н/о +13.8 +12.5 92 +12 +12 1025.0 1023.7
09 20.09 ЮВ 7 21 км н/о +14.4 +12.8 90 +12 +12 1025.0 1023.8
10 20.09 ЮВ 5 21 км н/о +14.6 +12.7 88 +13 +13 1024.8 1023.5
11 20.09 В 6 21 км н/о +16.2 +13.2 82 +15 +15 1024.2 1023.0
12 20.09 ЮВ 6 20 км н/о +17.2 +13.2 77 +16 +16 1023.5 1022.3
13 20.09 В 7 20 км н/о +17.4 +13.1 76 +16 +16 1022.4 1021.2
14 20.09 В 8 21 км н/о +17.6 +12.8 73 +17 +17 1021.5 1020.3
15 20.09 ЮВ 11
{13}
25 км н/о +18.9 +12.0 64 +19 +19 1020.4 1019.2
16 20.09 ЮВ 12
{15}
28 км н/о +18.1 +11.4 65 +17 +17 1019.3 1018.1
17 20.09 ЮВ 11
{15}
28 км н/о +17.3 +11.5 69 +16 +16 1018.7 1017.5
18 20.09 В 7
{13}
27 км н/о +15.8 +11.8 77 +14 +14 1018.2 1017.0 +19.2
19 20.09 В 6 20 км н/о +14.8 +11.7 82 +13 +13 1017.6 1016.4
20 20.09 В 7 24 км н/о +15.6 +12.1 80 +14 +14 1017.1 1015.9
21 20.09 В 5 22 км н/о +14.3 +11.8 85 +13 +13 1016.6 1015.4
22 20.09 В 7 21 км н/о +15.0 +12.6 86 +13 +13 1015.7 1014.5
23 20.09 В 6 25 км н/о +15.0 +12.4 84 +13 +13 1015.6 1014.4
00 21.09 ЮВ 9 24 км н/о +15.5 +12.2 81 +13 +13 1014.8 1013.6
01 21.09 ЮВ 6 25 км н/о +15.1 +11.9 81 +13 +13 1014.4 1013.2
02 21.09 ЮВ 9 28 км н/о +14.7 +11.0 78 +12 +12 1013.6 1012.4
03 21.09 ЮВ 10
{14}
26 км н/о +14.2 +10.6 79 +11 +11 1012.7 1011.5
04 21.09 ЮВ 11
{14}
25 км н/о +13.7 +10.0 78 +11 +11 1012.0 1010.8
05 21.09 ЮВ 9
{14}
24 км н/о +13.4 +9.5 77 +10 +10 1011.5 1010.3
06 21.09 ЮВ 9 23 км н/о +13.2 +9.3 77 +10 +10 1011.4 1010.2 +13.0
07 21.09 ЮВ 8 25 км н/о +13.7 +9.6 76 +11 +11 1011.0 1009.8
08 21.09 В 9 27 км н/о +15.0 +9.3 69 +13 +13 1010.4 1009.3
09 21.09 В 10
{13}
24 км н/о +16.1 +9.6 65 +14 +14 1010.1 1008.9
10 21.09 В 12
{15}
26 км н/о +17.4 +9.1 58 +16 +16 1009.7 1008.5
11 21.09 В 9
{15}
25 км н/о +18.4 +8.1 51 +18 +18 1009.1 1007.9
12 21.09 В 10
{14}
26 км н/о +19.3 +7.3 46 +19 +19 1008.4 1007.2
13 21.09 В 9
{13}
25 км н/о +20.0 +9.1 49 +20 +20 1007.4 1006.2
14 21.09 В 9
{14}
26 км н/о +20.4 +8.7 47 +21 +21 комфорт 1007.1 1005.9
15 21.09 ЮВ 8 25 км н/о +20.9 +9.4 48 +22 +22 комфорт 1006.7 1005.6
16 21.09 ЮВ 10
{14}
26 км н/о +20.6 +9.1 48 +21 +21 комфорт 1005.8 1004.6
17 21.09 ЮВ 8
{14}
27 км н/о +19.3 +9.9 54 +19 +19 1005.3 1004.2
18 21.09 В 7 26 км н/о +18.1 +9.9 59 +18 +18 1005.1 1004.0 +22.1
19 21.09 ЮВ 6 27 км н/о +17.6 +11.2 66 +17 +17 1005.2 1004.0
20 21.09 ЮВ 5 28 км н/о +17.2 +11.4 69 +17 +17 1004.9 1003.7
21 21.09 В 5 27 км н/о +17.9 +10.7 63 +17 +17 1004.4 1003.2
22 21.09 В 6 29 км н/о +18.0 +10.3 61 +18 +18 1003.9 1002.7
23 21.09 В 7 26 км н/о +18.3 +10.6 61 +18 +18 1003.3 1002.1
00 22.09 В 6 24 км н/о +17.1 +10.9 67 +16 +16 1003.1 1001.9
01 22.09 ЮВ 5 13 км н/о +15.9 +12.1 78 +15 +15 1003.5 1002.3
02 22.09 ЮВ 5 18 км н/о +14.7 +12.8 88 +13 +13 1002.7 1001.5
03 22.09 В 8 6000 м н/о +14.3 +13.0 92 +12 +12 1002.0 1000.8
04 22.09 В 8 17 км н/о +14.6 +12.9 90 +12 +12 1001.5 1000.3
05 22.09 ЮВ 6 18 км н/о +14.5 +12.9 90 +13 +13 1000.8 999.6
06 22.09 ЮВ 4 18 км н/о +14.5 +12.9 90 +13 +13 1000.8 999.6 +14.3 2
07 22.09 В 5 17 км н/о +14.2 +12.8 91 +12 +12 1000.4 999.2
08 22.09 В 7 18 км н/о +14.5 +12.8 90 +12 +12 1000.4 999.2
09 22.09 В 7 19 км н/о +15.3 +13.1 87 +14 +14 1000.2 999.0
10 22.09 В 9
{13}
17 км н/о +16.3 +13.9 86 +15 +15 999.7 998.5
11 22.09 ЮВ 6 22 км н/о +16.8 +14.1 84 +16 +16 999.5 998.3
12 22.09 В 7 22 км н/о +16.6 +14.1 85 +15 +15 999.6 998.5
13 22.09 В 7 19 км н/о +16.6 +14.7 89 +15 +15 999.5 998.3

 

Местоположение метеостанции Макрайханиш (Великобритания): широта 55.43 долгота -5.70 высота над уровнем моря 10 м.

В архиве по умолчанию представлена погода в Макрайханише за последнюю неделю. Архивные данные за месяц целиком и за предыдущие месяцы, начиная с января 2011 года, Вы можете получить, выбрав интересующий диапазон дат из раскрывающегося списка и нажав кнопку "Ввод!".


*Определитесь, кто Вы:
робот инопланетянин человек

Внимание! Время в таблицах - всемирное. Для получения местного времени необходимо прибавить поправку, которая равна 0 ч.

Смотрите также архив погоды в соседних городах и на ближайших метеорологических станциях:

Погода в Баллипатрик Форест (Великобритания) (41 км)
Погода в Порт-Эллене (Великобритания) (44 км)
Погода в Прествике (Великобритания) (71 км)
Погода в Портгленоне (Великобритания) (78 км)
Погода в Аэропорту West Freugh (Великобритания) (80 км)
Погода на Магиллигане (Великобритания) (84 км)
Погода в Глазго (Великобритания) (90 км)
Погода в Белфасте (Великобритания) (93 км)
Погода в Малин Хед (Ирландия) (104 км)
Погода на Озере Lough Fea (Великобритания) (106 км)

Пояснения к столбцам:

Ветер - указаны скорость ветра в м/с - средняя за 10 мин, порывы в срок и между сроками (в фигурных скобках) и направление, откуда дует ветер: С - северный, СВ - северо-восточный, В - восточный, ЮВ - юго-восточный, Ю - южный, ЮЗ - юго-западный, З - западный, СЗ - северо-западный.
Видимость - горизонтальная дальность видимости в метрах или километрах. При видимости от 1 до 10 км при отсутствии осадков обычно наблюдается дымка, при ухудшении видимости до 1 км и менее - туман. В сухую погоду видимость может ухудшаться дымом, пылью или мглою.
Явления - указаны атмосферные явления, наблюдавшиеся в срок или в последний час перед сроком; фигурными скобками обозначены явления, наблюдавшиеся между сроками (за 1-3 часа до срока); квадратными скобками обозначены град или гололедные отложения с указанием их диаметра в мм.
Облачность - указаны через наклонную черту общая и нижняя облачность в баллах и высота нижней границы облаков в метрах; квадратными скобками обозначены формы облаков: Ci - перистые, Cs - перисто-слоистые, Cc - перисто-кучевые, Ac - высококучевые, As - высокослоистые, Sc - слоисто-кучевые, Ns - слоисто-дождевые, Cu - кучевые, Cb - кучево-дождевые. Подробнее классификацию облаков см. в Атласе облаков (PDF).
T - Температура воздуха - температура, измеренная на высоте 2 м над землей.
Td - Температура точки росы - температура, при понижении до которой содержащийся в воздухе водяной пар достигнет насыщения.
f - Относительная влажность воздуха - влажноcть воздуха, измеренная на высоте 2 м над землей.
Te - Эффективная температура - температура, которую ощущает одетый по сезону человек в тени. Характеристика душности погоды. При расчете учитывается влияние влажности воздуха и скорости ветра на теплоощущения человека.
Tes - Эффективная температура на солнце - температура, которую ощущает человек, с поправкой на солнечный нагрев. Характеристика знойности погоды. Зависит от высоты солнца над горизонтом, облачности и скорости ветра. Ночью, в пасмурную погоду, а также при ветре 12 м/с и более поправка равна нулю.
P - Атмосферное давление - приведенное к уровню моря атмосферное давление.
Po - Атмосферное давление - измеренное на уровне метеостанции атмосферное давление.
Tmin - Минимальная температура - минимум температуры воздуха на высоте 2 м над землей.
Tmax - Максимальная температура - максимум температуры воздуха на высоте 2 м над землей.
R - Количество осадков - Количество выпавших осадков за период времени, мм. При наведении курсора мыши на число - период времени, за который выпало указанное количество осадков.
R24 - Количество осадков - Количество выпавших осадков за 24 часа, мм.
S - Снежный покров - Высота снежного покрова, см. При наведении курсора мыши на число - состояние снежного покрова и степень покрытия местности в баллах.